Voltar ao catálogo

STARLINK-11332

AtivoComunicaçõesVLEO
NORAD 61539·PAYLOAD·🇺🇸 United States

Lançado Oct 15, 2024 de Vandenberg Space Force Base

Loading…

Próximas Passagens (próximas 24 horas)

TLE

AtualizadoSource: CelesTrak SupGP

Época: Sep 14, 2026, 21:34 UTC

1 61539C 24184H   26257.89909722  .00045350  00000+0  37338-3 0  2571
2 61539  53.1565  23.2401 0001057  82.8939 111.9846 15.69698892    19

Acompanhe STARLINK-11332 em tempo real com AllMySat

Download on the App Store